Theta_e
356 362 367 368 368 368 367 366 364 363 362 362 361 362 363 361 361 360 364 364 364 363 361 362 362 361 357 357 356 353 353 353 353 353 353 353 352 351 350 348 349 347 349
360 364 365 367 367 367 367 365 363 362 362 362 362 363 362 361 361 362 364 364 364 362 361 361 361 359 357 356 355 354 354 355 355 355 354 353 352 350 348 347 347 348 347
361 367 362 366 367 367 366 364 363 361 361 362 363 363 362 361 361 363 363 364 364 361 360 358 358 357 356 355 354 354 355 357 356 356 356 351 349 353 352 347 346 345 346
364 369 363 366 366 367 365 363 362 362 362 363 363 363 362 361 362 363 363 364 363 361 359 356 354 354 354 354 354 354 354 356 356 357 356 354 348 354 352 349 347 348 348
365 368 365 365 366 367 365 363 362 362 363 363 363 363 362 362 362 362 363 364 362 360 358 356 354 354 354 354 354 354 353 353 355 353 352 350 349 352 352 349 351 351 351
364 367 362 364 365 365 365 365 364 363 363 363 363 363 362 362 362 362 363 363 362 359 358 356 354 354 353 354 354 354 352 353 353 355 350 355 353 355 353 351 353 352 351
363 366 364 363 364 365 365 365 364 364 363 362 362 362 362 361 361 362 363 363 362 359 357 355 354 354 353 353 353 353 355 357 356 353 351 355 353 357 354 350 351 352 352
362 364 367 362 363 363 364 364 363 362 362 362 361 361 361 361 361 362 362 362 362 361 357 354 354 354 354 354 354 355 354 352 355 349 350 354 354 356 352 352 352 351 352
361 362 366 359 361 363 362 362 362 362 361 360 360 359 360 361 361 362 362 362 362 361 358 355 353 352 352 352 353 352 351 351 350 351 347 354 356 355 353 351 349 349 350
360 360 362 359 356 355 357 361 361 361 360 359 360 359 359 360 361 361 360 361 361 359 356 354 352 351 350 350 350 350 349 350 346 348 349 354 357 354 351 348 347 346 346
358 360 362 359 357 353 350 356 360 360 360 359 359 359 357 353 355 358 355 359 360 357 354 352 351 350 349 348 349 348 347 342 344 344 353 356 357 353 350 348 346 345 344
354 357 359 361 358 355 350 356 352 352 354 355 354 358 353 352 353 349 352 360 359 356 353 351 350 349 347 339 340 345 339 338 340 339 354 357 356 351 349 347 346 345 344
345 357 357 363 364 358 352 356 350 350 349 350 352 354 354 350 353 347 352 354 356 354 349 348 346 342 340 338 338 337 335 337 340 344 353 357 356 351 348 346 346 346 345
323 342 360 365 363 365 357 353 354 349 350 349 349 354 354 350 354 351 347 353 351 350 347 344 341 341 339 339 338 337 337 343 346 349 354 356 355 351 348 347 346 346 345
322 327 342 362 363 365 364 357 355 351 350 351 350 352 351 347 354 352 352 351 351 348 344 343 340 341 340 341 340 341 344 348 350 348 351 356 355 353 349 347 345 345 343
323 325 328 337 363 361 363 367 361 360 354 352 350 352 355 350 355 350 352 349 347 346 344 343 343 341 341 341 343 347 349 349 350 353 353 354 354 352 351 347 346 344 343
322 325 328 333 342 365 364 362 361 358 354 351 351 361 359 359 359 355 349 349 347 350 357 351 348 343 341 342 345 347 350 354 354 356 351 355 351 351 351 349 346 344 343
323 325 327 325 328 349 364 360 357 357 356 354 352 352 356 358 360 358 349 349 349 349 346 343 343 338 339 342 347 347 353 358 351 356 351 352 350 346 349 349 344 340 340
326 329 333 333 329 339 350 355 359 363 359 355 355 354 359 357 356 356 349 348 357 348 346 344 343 344 343 345 345 349 354 358 355 350 351 352 351 348 346 347 340 338 338
325 333 334 333 342 344 338 357 351 353 355 358 356 354 359 359 358 358 350 352 353 346 344 344 347 342 341 342 341 351 352 354 352 353 351 349 350 349 348 342 342 338 335
325 332 334 336 344 339 330 336 346 344 350 354 359 360 358 360 359 361 352 353 352 349 349 352 349 349 341 348 342 347 347 350 352 350 349 348 346 342 343 342 340 335 331
322 327 331 336 340 343 332 338 343 348 349 350 357 358 357 355 357 357 357 353 355 348 354 355 352 341 344 346 341 341 338 340 343 344 345 343 345 340 337 334 332 330 330
321 326 328 334 339 342 343 337 342 350 353 351 354 357 358 353 357 356 358 357 356 351 347 352 352 348 340 346 351 340 338 334 338 339 339 337 342 336 335 330 328 327 326
322 323 325 328 336 336 344 338 343 338 341 347 349 351 355 358 357 353 353 357 360 349 347 350 351 348 348 342 348 347 351 346 334 327 332 333 333 332 331 329 326 324 322
322 324 326 329 331 333 339 346 337 343 340 342 347 351 354 358 360 355 352 357 357 350 351 350 350 353 345 345 345 346 347 350 345 337 333 327 329 331 328 326 325 323 321
321 321 324 328 331 333 332 339 349 349 346 340 343 341 345 349 352 356 352 353 357 354 353 349 355 356 350 348 346 350 344 342 341 337 334 333 325 329 326 324 322 320 317
Wind_Speed
11 18 11 10 11 14 15 16 16 15 15 15 15 14 14 14 14 15 13 14 13 13 12 10 10 9 8 8 9 9 9 9 9 9 10 9 8 7 5 2 4 4 8
15 18 13 11 11 13 15 15 16 15 15 16 15 14 14 14 14 14 12 12 12 13 12 11 11 10 9 9 9 9 9 8 8 7 8 10 8 6 3 2 5 8 5
15 18 16 11 12 13 16 15 15 15 14 15 15 15 15 14 14 13 12 11 12 12 12 11 10 9 9 8 8 8 8 7 6 6 9 9 12 7 4 1 2 2 1
15 15 17 13 11 13 14 15 14 15 14 13 15 15 14 14 13 12 11 10 11 11 11 10 9 8 9 9 8 8 7 6 6 9 10 11 14 12 6 2 3 3 5
14 15 15 15 13 15 13 15 14 14 14 14 14 14 14 14 13 12 10 9 11 10 10 10 9 8 8 8 8 7 6 6 10 11 12 6 7 11 8 3 6 6 6
12 14 20 15 12 14 14 15 14 14 14 14 15 14 14 14 14 13 11 10 10 11 10 9 9 8 8 8 7 7 6 7 11 12 5 10 10 11 8 2 4 5 4
12 14 16 15 12 13 14 15 15 15 14 14 14 14 14 13 12 13 12 11 10 11 10 9 9 8 8 7 7 6 6 9 11 13 3 8 12 9 7 1 2 2 3
13 14 16 14 13 12 14 15 15 15 15 15 15 15 13 12 13 13 11 11 10 10 10 9 8 8 7 7 7 7 7 9 12 5 2 9 12 9 5 4 4 4 5
11 13 15 16 14 12 11 12 14 15 15 15 15 15 15 14 12 12 11 11 10 9 9 9 9 8 8 7 7 7 8 11 13 12 6 9 12 10 6 4 3 4 5
10 12 16 15 16 15 14 12 11 13 14 14 15 15 14 13 11 11 9 8 8 9 9 9 9 8 8 7 7 7 9 11 13 17 7 10 13 10 6 4 4 4 5
8 10 12 17 16 16 17 15 12 14 12 12 12 12 12 11 13 15 13 15 9 9 9 8 8 8 7 8 8 8 9 8 13 8 8 15 13 10 7 6 5 5 5
3 7 12 14 16 15 13 16 14 14 12 12 13 14 11 12 12 13 12 13 12 10 9 9 9 8 9 9 8 10 8 12 11 5 9 14 13 9 7 6 6 6 5
3 8 8 8 11 16 14 13 9 9 9 10 14 13 13 10 10 10 9 9 9 11 9 10 9 8 11 10 9 10 11 13 5 5 13 14 11 8 7 7 7 7 6
4 5 8 5 12 12 10 11 11 11 11 10 13 15 10 8 9 9 9 11 10 10 11 11 8 9 11 11 10 9 11 7 7 2 10 15 11 8 8 8 7 7 6
7 8 7 7 6 8 13 10 11 12 12 13 13 15 13 12 9 10 9 9 11 10 11 10 10 9 10 9 10 9 9 8 3 2 6 15 14 10 9 8 8 7 7
10 6 7 11 12 8 6 13 7 9 11 12 12 14 17 12 9 11 10 10 10 10 10 9 9 8 8 10 10 9 9 8 6 4 7 9 12 11 10 9 8 8 7
10 11 8 10 12 13 13 13 10 9 12 12 12 13 16 13 11 12 11 10 10 9 7 7 7 7 9 9 10 10 9 9 3 5 3 7 10 13 12 11 9 8 8
14 14 11 10 9 10 11 11 12 10 8 12 12 12 16 15 13 12 10 11 10 9 9 9 8 8 9 8 7 7 3 2 5 4 6 6 6 8 12 11 8 3 5
15 13 12 12 14 11 12 13 13 15 9 9 10 12 16 16 16 11 11 11 10 9 9 9 9 7 7 8 7 7 4 2 4 5 1 4 5 4 7 10 8 5 5
14 11 10 10 11 10 11 11 13 13 13 12 10 10 14 14 16 12 12 10 11 10 10 9 9 9 9 9 10 4 3 4 6 5 4 5 6 2 4 10 9 8 12
14 10 9 12 12 9 11 13 13 14 12 9 8 7 11 14 16 14 12 12 10 11 11 12 10 10 9 9 9 5 4 4 6 7 5 7 4 5 3 3 4 7 6
12 12 11 12 11 11 11 10 11 10 12 12 11 10 6 10 14 14 13 12 13 11 12 11 11 9 8 7 7 9 5 5 7 7 7 5 4 4 5 3 2 1 4
10 12 12 12 12 11 12 11 11 9 8 8 11 8 11 12 14 13 15 13 13 13 12 11 13 13 11 11 11 6 5 6 5 6 6 6 5 5 3 2 2 0 2
7 8 9 10 10 11 11 13 15 13 14 13 13 13 11 13 13 12 14 15 11 13 12 14 12 13 12 11 8 10 9 4 7 5 5 6 4 5 3 4 5 3 0
8 6 5 6 8 10 12 12 12 13 12 13 13 13 14 13 16 16 14 16 14 12 13 13 15 14 10 11 11 11 11 5 7 5 4 5 5 5 5 4 3 3 2
8 7 7 7 8 8 9 13 13 15 12 11 11 11 11 10 12 15 14 14 15 13 12 12 13 15 13 13 11 4 6 5 6 4 5 5 8 7 2 2 3 2 4
Wind_Direction
122 138 127 132 138 146 148 149 148 149 147 143 145 148 144 142 138 136 132 128 125 128 131 134 143 141 129 121 108 105 100 98 97 98 99 101 101 97 88 35 336 105 94
125 142 133 137 143 148 148 152 149 152 151 149 152 150 148 146 144 143 137 132 128 133 136 134 132 132 128 126 124 121 119 118 118 125 141 139 125 121 107 25 12 54 72
135 148 156 140 151 155 151 154 151 151 156 154 153 152 152 151 149 147 142 136 135 138 136 135 135 134 133 133 134 133 133 136 141 176 200 195 126 148 166 150 358 26 343
136 149 161 141 157 154 154 150 153 152 156 155 153 154 156 154 151 147 143 140 138 139 138 137 137 137 139 142 145 143 148 156 182 221 224 220 132 150 157 181 235 249 252
135 151 143 144 159 151 158 150 153 153 155 156 156 158 158 154 151 148 146 145 145 145 143 141 140 142 145 149 152 155 164 182 220 235 260 56 101 139 148 198 225 237 253
147 161 132 141 156 151 156 151 150 155 158 159 159 159 161 158 155 153 154 154 157 152 148 146 144 146 152 158 160 162 177 219 243 235 284 128 105 142 132 191 304 317 305
160 145 145 140 153 154 158 154 154 157 160 159 159 160 163 162 157 156 158 158 158 157 154 153 155 156 161 169 174 185 209 245 267 284 269 81 105 122 110 88 329 346 335
161 163 140 145 149 156 161 160 158 159 163 162 161 162 163 165 163 160 161 160 160 159 157 157 161 168 169 177 191 210 230 255 265 277 299 89 112 102 100 110 91 73 68
163 174 145 170 161 155 163 163 164 164 167 165 164 163 163 167 168 166 164 163 159 156 159 164 170 180 183 188 200 225 244 262 274 280 302 125 115 117 128 120 110 93 85
174 181 153 173 176 181 172 168 171 172 171 167 165 163 163 164 168 166 162 164 165 153 165 173 177 187 193 199 212 233 250 268 268 278 169 115 127 129 136 143 129 124 105
177 185 178 168 178 193 179 171 172 177 173 168 166 168 160 189 181 172 196 150 168 167 176 183 184 193 202 209 221 234 254 246 242 244 97 129 127 135 154 154 161 143 134
180 250 197 170 180 197 193 161 192 185 191 195 191 182 202 202 184 195 181 161 163 178 183 189 192 198 215 212 197 213 233 241 251 256 101 130 127 154 165 168 176 160 156
151 188 286 162 194 195 213 155 190 187 192 193 199 189 210 197 186 211 163 177 187 186 196 193 194 214 212 240 203 191 212 230 246 228 128 136 138 165 173 187 187 178 179
273 263 178 174 194 217 215 182 192 199 190 193 196 194 200 210 192 199 200 189 197 183 215 191 200 217 224 228 255 216 223 212 221 207 136 138 145 175 188 199 199 198 198
249 233 258 189 177 213 233 218 205 207 189 198 188 193 201 204 198 200 212 197 188 207 193 211 216 189 214 225 241 234 224 236 282 294 147 154 155 174 201 212 212 213 219
264 264 248 272 166 203 242 252 209 225 206 205 202 193 206 205 194 199 213 210 204 210 203 208 209 193 222 217 215 238 246 245 203 255 130 155 159 169 193 218 223 232 240
256 248 223 262 278 203 208 228 251 232 218 208 221 194 193 212 204 204 208 206 213 204 212 199 206 204 208 224 216 207 231 236 250 237 247 162 166 184 184 199 215 239 256
251 262 255 261 257 233 221 217 233 236 229 226 210 211 200 206 224 192 201 211 211 207 197 212 204 204 217 219 236 232 201 82 232 170 232 261 189 165 187 188 198 218 284
257 246 241 253 257 259 236 226 225 232 220 228 225 216 191 206 208 203 219 205 212 202 197 211 203 219 204 229 220 226 168 244 210 224 251 254 267 277 145 154 153 120 96
254 244 260 255 250 249 259 214 229 229 228 218 213 220 203 194 203 201 210 221 192 211 201 208 203 211 222 204 236 131 172 262 220 229 225 256 247 227 278 160 161 124 118
258 248 245 246 247 248 248 242 213 230 224 224 238 244 213 190 205 193 218 201 195 204 208 190 198 219 212 212 205 135 184 218 274 261 215 240 192 214 263 239 275 151 143
275 271 257 263 249 248 247 249 249 215 236 220 226 239 239 189 197 200 215 199 196 205 196 199 199 206 223 232 224 171 210 204 210 221 236 237 231 231 194 206 28 19 327
296 285 265 255 246 253 245 256 245 242 231 217 220 228 222 216 200 201 202 234 190 214 190 203 188 201 197 223 213 195 183 223 195 186 218 243 127 237 224 157 212 359 9
315 318 288 270 259 253 254 247 260 226 217 222 222 221 216 208 206 205 213 209 214 204 212 194 196 200 230 203 184 234 239 131 195 169 202 202 205 227 204 260 153 192 278
309 328 307 306 286 266 271 261 255 240 228 222 215 212 210 225 217 214 211 211 219 208 219 197 202 201 210 241 196 196 218 226 238 282 239 191 190 206 182 182 333 315 301
294 321 352 324 336 305 268 257 230 274 234 255 220 218 214 211 221 220 211 216 211 210 225 209 193 202 212 215 252 268 188 191 246 210 244 214 203 137 127 173 208 7 327